• In Netherlands
  • List of Countries
  • For 7 days
  • Water Temperature
  • Satellite Maps
  • Weather Map
  • Weather Widgets
  • user-avatar
    Login

    Hourly Weather Adelaide

    Today, 25 April, Tuesday

    Time Temperature Precipitation Wind Pressure Humidity
    00:00 +17°C° 0.1 mm 4 mps 755 mmHg 89%
    01:00 +17°C° 0 mm 4 mps 755 mmHg 88%
    02:00 +17°C° 0 mm 4 mps 755 mmHg 87%
    03:00 +17°C° 0 mm 4 mps 755 mmHg 86%
    04:00 +17°C° 0 mm 4 mps 755 mmHg 85%
    05:00 +17°C° 0 mm 4 mps 755 mmHg 84%
    06:00 +17°C° 0 mm 4 mps 756 mmHg 83%
    07:00 +18°C° 0 mm 4 mps 756 mmHg 81%
    08:00 +18°C° 0 mm 4 mps 756 mmHg 78%
    09:00 +18°C° 0 mm 4 mps 756 mmHg 76%
    10:00 +19°C° 0.1 mm 4 mps 756 mmHg 72%
    11:00 +19°C° 0.1 mm 4 mps 756 mmHg 68%
    12:00 +20°C° 0.1 mm 4 mps 755 mmHg 63%
    13:00 +20°C° 0.1 mm 5 mps 755 mmHg 63%
    14:00 +20°C° 0.1 mm 5 mps 755 mmHg 62%
    15:00 +19°C° 0 mm 5 mps 755 mmHg 63%
    16:00 +17°C° 0.2 mm 5 mps 755 mmHg 69%
    17:00 +16°C° 0.2 mm 5 mps 755 mmHg 74%
    18:00 +15°C° 0.2 mm 5 mps 755 mmHg 79%
    19:00 +15°C° 0.1 mm 5 mps 755 mmHg 78%
    20:00 +15°C° 0.1 mm 5 mps 755 mmHg 78%
    21:00 +15°C° 0 mm 6 mps 755 mmHg 77%
    22:00 +15°C° 0.3 mm 7 mps 755 mmHg 77%
    23:00 +14°C° 0.3 mm 7 mps 756 mmHg 76%

    Tomorrow, 26 April, Wednesday

    Time Temperature Precipitation Wind Pressure Humidity
    00:00 +13°C° 0.3 mm 8 mps 756 mmHg 76%
    01:00 +13°C° 0.1 mm 8 mps 757 mmHg 73%
    02:00 +12°C° 0.1 mm 8 mps 757 mmHg 69%
    03:00 +12°C° 0.1 mm 8 mps 758 mmHg 66%
    04:00 +11°C° 0 mm 7 mps 758 mmHg 64%
    05:00 +11°C° 0 mm 7 mps 759 mmHg 63%
    06:00 +11°C° 0 mm 7 mps 760 mmHg 62%
    07:00 +11°C° 0 mm 7 mps 760 mmHg 60%
    08:00 +11°C° 0 mm 7 mps 761 mmHg 58%
    09:00 +13°C° 0 mm 6 mps 762 mmHg 56%
    10:00 +13°C° 0.1 mm 6 mps 762 mmHg 56%
    11:00 +13°C° 0.1 mm 6 mps 762 mmHg 56%
    12:00 +13°C° 0.1 mm 6 mps 763 mmHg 55%
    13:00 +13°C° 0 mm 6 mps 763 mmHg 55%
    14:00 +13°C° 0 mm 5 mps 763 mmHg 55%
    15:00 +13°C° 0 mm 5 mps 763 mmHg 55%
    16:00 +13°C° 0 mm 5 mps 763 mmHg 57%
    17:00 +12°C° 0 mm 4 mps 764 mmHg 60%
    18:00 +12°C° 0 mm 4 mps 764 mmHg 62%
    19:00 +12°C° 0 mm 4 mps 764 mmHg 64%
    20:00 +11°C° 0 mm 4 mps 765 mmHg 66%
    21:00 +11°C° 0 mm 4 mps 765 mmHg 68%
    22:00 +11°C° 0 mm 3 mps 765 mmHg 68%
    23:00 +12°C° 0 mm 3 mps 765 mmHg 68%

    Day after tomorrow, 27 April, Thursday

    Time Temperature Precipitation Wind Pressure Humidity
    00:00 +12°C° 0 mm 3 mps 765 mmHg 68%
    01:00 +12°C° 0 mm 3 mps 765 mmHg 69%
    02:00 +12°C° 0 mm 3 mps 765 mmHg 70%
    03:00 +12°C° 0 mm 3 mps 765 mmHg 72%
    04:00 +12°C° 0 mm 3 mps 766 mmHg 72%
    05:00 +12°C° 0 mm 3 mps 766 mmHg 73%
    06:00 +12°C° 0 mm 3 mps 766 mmHg 74%
    07:00 +13°C° 0.1 mm 3 mps 767 mmHg 73%
    08:00 +13°C° 0.1 mm 3 mps 767 mmHg 72%
    09:00 +14°C° 0.1 mm 3 mps 767 mmHg 71%
    10:00 +14°C° 0.1 mm 3 mps 767 mmHg 71%
    11:00 +14°C° 0.1 mm 3 mps 767 mmHg 71%
    12:00 +14°C° 0.1 mm 4 mps 767 mmHg 71%
    13:00 +16°C° 0.1 mm 3 mps 767 mmHg 68%
    14:00 +16°C° 0.1 mm 3 mps 766 mmHg 65%
    15:00 +16°C° 0.1 mm 3 mps 766 mmHg 61%
    16:00 +16°C° 0 mm 3 mps 766 mmHg 65%
    17:00 +14°C° 0 mm 3 mps 766 mmHg 69%
    18:00 +14°C° 0 mm 2 mps 767 mmHg 73%
    19:00 +13°C° 0 mm 2 mps 767 mmHg 75%
    20:00 +13°C° 0 mm 2 mps 767 mmHg 78%
    21:00 +13°C° 0 mm 2 mps 767 mmHg 81%
    22:00 +12°C° 0 mm 2 mps 767 mmHg 83%
    23:00 +12°C° 0 mm 1 mps 767 mmHg 85%

    28 April, Friday

    Time Temperature Precipitation Wind Pressure Humidity
    00:00 +12°C° 0 mm 1 mps 767 mmHg 87%
    01:00 +12°C° 0 mm 2 mps 767 mmHg 87%
    02:00 +12°C° 0 mm 2 mps 767 mmHg 88%
    03:00 +12°C° 0 mm 2 mps 767 mmHg 89%
    04:00 +12°C° 0 mm 2 mps 767 mmHg 90%
    05:00 +12°C° 0 mm 2 mps 767 mmHg 91%
    06:00 +12°C° 0 mm 2 mps 767 mmHg 92%
    07:00 +14°C° 0 mm 2 mps 767 mmHg 85%
    08:00 +16°C° 0 mm 2 mps 768 mmHg 79%
    09:00 +17°C° 0 mm 2 mps 768 mmHg 73%
    10:00 +17°C° 0.1 mm 2 mps 768 mmHg 71%
    11:00 +18°C° 0.1 mm 2 mps 767 mmHg 69%
    12:00 +18°C° 0.1 mm 2 mps 767 mmHg 67%
    13:00 +18°C° 0.1 mm 2 mps 767 mmHg 66%
    14:00 +18°C° 0.1 mm 2 mps 766 mmHg 66%
    15:00 +18°C° 0.1 mm 2 mps 766 mmHg 65%
    16:00 +17°C° 0 mm 2 mps 766 mmHg 70%
    17:00 +16°C° 0 mm 2 mps 766 mmHg 76%
    18:00 +15°C° 0 mm 2 mps 766 mmHg 81%
    19:00 +15°C° 0 mm 2 mps 766 mmHg 82%
    20:00 +15°C° 0 mm 2 mps 767 mmHg 82%
    21:00 +15°C° 0 mm 2 mps 767 mmHg 83%
    22:00 +15°C° 0 mm 2 mps 767 mmHg 83%
    23:00 +15°C° 0 mm 2 mps 767 mmHg 84%

    29 April, Saturday

    Time Temperature Precipitation Wind Pressure Humidity
    00:00 +15°C° 0 mm 2 mps 767 mmHg 85%
    01:00 +14°C° 0 mm 2 mps 766 mmHg 86%
    02:00 +14°C° 0 mm 1 mps 766 mmHg 87%
    03:00 +14°C° 0 mm 1 mps 766 mmHg 88%
    04:00 +13°C° 0 mm 1 mps 766 mmHg 90%
    05:00 +13°C° 0 mm 1 mps 766 mmHg 91%
    06:00 +13°C° 0 mm 1 mps 766 mmHg 92%
    07:00 +15°C° 0 mm 1 mps 767 mmHg 83%
    08:00 +16°C° 0 mm 1 mps 767 mmHg 75%
    09:00 +17°C° 0 mm 0 mps 767 mmHg 67%
    10:00 +20°C° 0 mm 1 mps 767 mmHg 64%
    11:00 +20°C° 0 mm 1 mps 767 mmHg 61%
    12:00 +21°C° 0 mm 1 mps 766 mmHg 58%
    13:00 +20°C° 0 mm 1 mps 766 mmHg 62%
    14:00 +19°C° 0 mm 2 mps 766 mmHg 65%
    15:00 +18°C° 0 mm 2 mps 765 mmHg 69%
    16:00 +17°C° 0 mm 2 mps 765 mmHg 74%
    17:00 +18°C° 0 mm 1 mps 765 mmHg 79%
    18:00 +16°C° 0 mm 1 mps 765 mmHg 84%
    19:00 +15°C° 0 mm 1 mps 765 mmHg 86%
    20:00 +15°C° 0 mm 1 mps 766 mmHg 88%
    21:00 +15°C° 0 mm 1 mps 766 mmHg 90%
    22:00 +14°C° 0 mm 1 mps 765 mmHg 91%
    23:00 +14°C° 0 mm 1 mps 765 mmHg 93%

    30 April, Sunday

    Time Temperature Precipitation Wind Pressure Humidity
    00:00 +13°C° 0 mm 1 mps 765 mmHg 94%
    01:00 +13°C° 0 mm 1 mps 764 mmHg 94%
    02:00 +12°C° 0 mm 0 mps 764 mmHg 94%
    03:00 +12°C° 0 mm 0 mps 764 mmHg 95%
    04:00 +13°C° 0 mm 1 mps 764 mmHg 95%
    05:00 +13°C° 0 mm 1 mps 764 mmHg 94%
    06:00 +13°C° 0 mm 1 mps 764 mmHg 94%
    07:00 +15°C° 0 mm 1 mps 764 mmHg 88%
    08:00 +16°C° 0 mm 1 mps 764 mmHg 81%
    09:00 +19°C° 0 mm 1 mps 764 mmHg 74%
    10:00 +18°C° 0.1 mm 2 mps 763 mmHg 71%
    11:00 +19°C° 0.1 mm 2 mps 763 mmHg 67%
    12:00 +19°C° 0.1 mm 2 mps 762 mmHg 64%
    13:00 +19°C° 0 mm 2 mps 761 mmHg 61%
    14:00 +20°C° 0 mm 2 mps 761 mmHg 58%
    15:00 +20°C° 0 mm 2 mps 760 mmHg 55%
    16:00 +19°C° 0 mm 2 mps 760 mmHg 60%
    17:00 +18°C° 0 mm 2 mps 760 mmHg 64%
    18:00 +16°C° 0 mm 2 mps 760 mmHg 69%
    19:00 +16°C° 0 mm 2 mps 760 mmHg 71%
    20:00 +16°C° 0 mm 2 mps 760 mmHg 72%
    21:00 +16°C° 0 mm 2 mps 760 mmHg 73%
    22:00 +16°C° 0 mm 2 mps 759 mmHg 76%
    23:00 +15°C° 0 mm 2 mps 759 mmHg 78%
    Show more